RH
33 32 32 32 31 30 29 28 27 46 56 59 59 65 70 70 68 67 64 51 40 47 67 68 53 56 32 28 28 97 70 45 29 20 19 24 62 90 55 51 66 88 77 100
34 32 31 28 28 27 22 24 40 54 56 67 72 67 68 66 62 58 57 54 37 37 25 23 25 25 26 27 24 22 20 20 20 23 26 29 27 23 23 24 30 38 42 41
35 30 29 27 25 22 22 27 35 40 64 76 77 76 76 73 69 70 68 50 51 34 29 23 22 24 24 22 16 13 16 20 24 30 28 31 31 30 28 29 30 29 30 30
35 36 32 38 20 14 14 33 37 36 46 75 80 82 83 81 81 72 61 53 42 33 43 51 41 32 25 20 17 19 20 22 24 26 26 26 25 25 26 27 27 28 30 32
32 31 24 22 16 18 31 37 46 46 52 64 76 71 86 85 85 68 61 67 64 44 39 35 29 17 17 18 19 19 20 21 23 23 23 24 25 26 28 30 33 35 36 57
33 31 25 18 22 38 36 47 54 54 50 78 86 83 82 78 72 71 74 77 63 44 42 32 23 20 19 20 20 20 20 20 21 22 24 26 28 32 36 40 58 87 95 92
31 29 25 33 40 45 46 48 60 70 81 88 82 93 90 81 74 74 81 71 40 45 43 27 23 21 26 21 20 19 19 20 22 25 31 39 56 84 96 93 87 80 67 62
28 41 32 41 46 48 53 54 46 71 92 81 99 77 82 81 83 81 55 39 53 34 27 26 28 25 20 18 18 19 21 25 43 87 97 98 96 91 85 80 60 60 62 50
34 45 43 52 46 46 54 51 57 77 94 90 98 86 82 82 70 32 53 46 33 24 25 22 20 18 18 18 19 22 29 55 97 94 93 90 82 60 50 33 22 20 23 28
33 46 54 53 46 46 56 55 66 64 87 88 98 83 76 70 40 48 57 60 70 42 17 16 18 18 19 20 23 33 67 100 98 83 80 73 55 34 26 20 20 25 31 35
31 30 54 58 57 48 59 66 68 63 70 91 95 81 76 47 57 71 72 72 83 47 18 18 20 20 20 23 29 37 79 93 88 85 81 67 30 22 21 23 28 40 51 56
31 48 64 68 74 66 63 57 62 64 86 74 68 75 46 55 70 74 74 82 79 30 22 23 22 20 22 26 31 58 84 43 58 77 61 30 18 19 26 38 49 64 68 68
50 62 79 90 80 73 73 67 63 66 67 66 59 66 67 69 72 76 80 83 57 24 22 22 21 21 23 30 55 97 83 74 52 46 43 28 23 27 34 49 69 78 82 86
52 71 59 50 57 68 71 72 72 60 46 59 62 72 73 72 75 78 79 68 32 24 22 22 21 21 26 32 82 97 95 95 89 43 31 27 32 33 43 66 84 96 96 96
71 74 76 72 73 72 62 71 71 55 50 51 79 74 75 74 77 74 78 60 29 24 23 22 21 22 29 35 72 98 100 100 97 96 57 55 35 39 63 83 96 96 96 96
81 93 87 88 78 60 57 64 57 60 72 83 80 80 86 92 90 85 76 44 29 24 23 23 21 22 31 52 99 100 100 100 99 97 82 61 35 59 86 98 98 98 96 97
80 90 96 99 83 73 84 95 79 87 85 78 76 91 86 96 89 66 63 42 27 24 23 23 21 23 32 42 84 99 99 100 99 100 85 39 47 85 99 99 98 96 99 98
77 75 85 97 96 92 99 95 89 79 79 86 87 85 82 87 72 72 56 37 25 23 23 23 21 23 32 71 100 99 98 98 100 100 42 40 66 91 86 100 96 97 96 96
90 80 98 97 98 99 100 97 94 90 99 96 84 80 66 51 63 56 42 34 23 22 22 23 21 22 32 65 91 97 87 93 88 49 43 51 90 86 76 84 90 89 87 90
68 89 91 82 83 92 96 91 86 78 69 84 96 99 100 96 48 59 39 29 23 21 21 22 21 21 30 64 96 93 68 42 21 31 51 66 93 87 74 78 81 86 89 88
97 98 87 79 86 90 89 85 74 76 70 99 98 98 98 93 83 63 51 33 21 21 20 22 21 20 28 61 95 96 76 42 24 40 54 86 91 92 75 79 85 84 84 89
99 93 88 73 78 85 84 83 83 81 99 97 99 98 100 96 76 52 32 20 17 17 17 19 20 20 24 38 74 100 97 91 55 41 50 93 95 95 93 82 74 76 77 80
92 99 97 89 80 81 96 90 85 99 99 99 94 100 98 70 63 36 22 16 14 12 12 14 16 21 21 29 40 99 99 97 95 51 40 68 100 96 95 95 96 92 89 90
100 100 100 95 100 99 97 99 100 83 92 99 98 82 90 67 49 27 17 12 10 11 12 12 12 14 19 22 33 75 100 97 100 98 41 44 85 85 87 95 98 100 95 98
88 82 87 95 94 92 91 98 100 98 87 71 81 72 67 49 27 20 13 11 13 15 17 16 15 14 14 20 24 43 93 99 99 100 79 33 36 72 73 91 95 99 95 100
74 74 89 94 84 84 86 94 99 79 86 74 66 50 33 24 20 16 12 13 16 21 27 26 23 20 16 15 20 27 64 99 98 99 100 49 22 29 48 64 92 94 93 91
Wind_Speed
7 8 5 2 1 2 4 5 1 5 8 1 8 12 10 6 5 13 12 13 15 17 18 20 22 20 19 20 12 13 23 19 21 23 23 21 21 30 34 32 34 35 39 38
9 6 4 2 4 5 6 3 7 7 5 3 11 7 5 2 3 5 7 12 17 16 17 17 18 19 20 20 17 17 19 20 22 25 28 30 31 31 31 31 33 34 37 39
10 8 4 2 5 6 3 4 9 4 9 11 8 4 1 4 4 6 12 17 18 17 19 21 22 21 21 21 22 24 25 26 28 30 33 35 36 37 38 38 40 40 41 42
8 6 3 6 6 6 7 7 4 3 8 3 6 2 2 1 5 9 13 14 16 19 22 27 27 26 25 25 26 27 29 31 32 34 37 39 41 43 43 45 45 46 46 46
7 6 5 4 4 5 5 7 4 5 5 6 2 1 1 2 1 9 11 15 21 24 26 27 25 23 24 26 28 29 32 34 36 38 41 43 44 46 48 48 50 50 50 51
9 8 3 3 5 4 5 8 8 8 6 1 3 2 2 3 7 10 13 17 24 26 26 20 21 24 26 29 32 35 36 36 38 41 42 45 47 48 49 50 52 50 43 41
9 5 4 5 5 2 9 17 5 1 1 3 2 1 1 3 6 11 14 20 23 19 18 21 24 28 31 34 35 36 37 38 40 42 43 45 47 48 44 39 40 41 40 39
9 5 5 5 9 6 18 13 4 6 4 3 2 3 1 4 7 11 16 17 16 19 21 25 29 33 35 35 36 37 39 41 42 46 45 43 42 36 36 40 42 41 40 40
8 6 5 4 4 7 7 5 8 8 6 3 2 2 2 2 7 10 13 16 20 23 26 30 32 33 35 36 36 38 41 43 46 46 42 36 34 37 38 41 40 40 38 36
8 7 10 6 3 4 8 12 6 5 3 1 1 1 3 4 8 10 15 21 26 29 30 31 32 34 35 35 37 39 44 44 44 42 37 38 39 37 39 40 38 36 34 31
10 8 8 8 3 6 10 14 5 7 4 5 3 1 2 3 8 14 18 24 29 31 31 31 32 33 34 36 38 42 47 46 41 37 38 39 39 41 41 41 39 36 34 30
10 7 7 9 6 4 6 11 12 6 6 5 5 3 3 6 9 14 18 24 28 30 28 30 32 33 35 38 41 45 45 45 37 37 40 40 38 39 39 40 38 35 34 31
11 6 8 5 5 7 4 10 12 7 12 6 5 6 3 2 8 13 19 23 29 29 29 30 32 34 37 40 44 43 43 43 40 40 40 41 40 40 40 38 35 33 32 30
10 8 4 6 3 8 8 10 16 7 6 14 8 10 6 3 6 12 16 22 28 29 30 33 34 36 38 42 46 44 43 43 42 42 42 42 41 41 39 36 34 32 29 29
8 9 9 9 7 7 11 13 10 9 16 5 12 5 1 5 10 15 21 26 28 30 32 33 35 37 40 44 47 44 43 44 42 46 43 43 42 41 38 36 33 28 27 24
7 9 16 16 15 14 20 18 18 15 16 18 11 7 4 7 12 16 21 27 29 31 32 33 35 37 40 44 46 46 43 42 41 46 48 45 43 40 36 34 26 24 21 15
9 15 15 11 22 20 16 16 15 15 12 9 5 6 6 10 15 19 22 26 29 31 32 34 35 37 40 43 46 50 44 40 35 41 47 44 41 38 37 33 24 21 13 16
8 12 10 15 14 3 11 14 13 11 9 7 5 6 9 12 16 18 21 26 29 30 32 33 34 36 39 44 44 52 44 37 33 40 42 41 39 40 36 29 21 17 15 16
4 12 7 6 11 14 13 11 8 5 4 1 6 6 7 10 11 16 22 28 29 31 31 31 33 35 38 42 46 50 41 37 37 40 41 39 40 39 37 26 20 14 15 18
1 7 3 11 4 3 12 10 6 2 1 3 6 10 14 16 16 22 24 27 28 28 29 29 31 33 36 40 44 44 48 41 39 39 40 37 41 40 37 28 22 19 17 17
17 14 13 10 6 4 15 8 4 2 2 4 5 10 14 17 19 22 25 27 27 27 27 27 30 33 35 38 41 45 46 47 40 38 39 37 41 40 40 31 24 21 22 20
4 6 5 4 5 4 10 6 3 3 1 3 7 11 13 14 18 21 23 24 24 24 24 26 29 32 34 38 39 44 44 48 45 39 41 37 38 41 40 38 34 26 23 21
4 7 4 4 9 16 10 6 3 5 4 5 7 10 12 14 18 20 22 21 22 23 24 25 28 30 33 37 43 41 44 44 50 44 42 39 34 37 37 35 35 33 33 28
10 8 18 13 11 9 6 5 7 6 5 6 10 10 10 16 18 20 19 19 20 21 23 25 27 30 32 35 40 43 43 41 48 49 45 42 35 33 35 34 31 30 31 33
12 13 16 17 13 9 7 6 3 3 7 8 10 13 14 16 17 16 17 18 19 22 23 25 28 31 33 34 36 40 41 38 43 46 47 46 41 36 36 36 35 32 29 28
14 19 21 15 9 8 6 5 6 7 9 12 16 18 16 15 16 16 17 17 19 22 23 25 27 29 31 32 34 36 40 40 37 44 44 45 45 40 36 36 36 35 36 33
Wind_Direction
175 189 203 197 248 262 308 327 356 147 131 84 151 151 152 182 260 296 295 308 321 307 316 326 331 336 352 355 6 254 284 300 310 311 309 304 282 276 285 281 271 273 273 275
185 180 143 13 329 321 302 253 166 162 165 193 142 145 129 110 269 292 330 345 352 358 1 358 1 356 354 348 338 330 325 322 318 317 313 310 306 299 295 292 287 281 275 272
208 177 159 262 286 297 238 247 199 210 159 133 163 138 201 286 299 353 1 359 0 4 358 357 358 354 346 338 334 331 328 324 321 317 311 307 302 299 298 295 289 285 281 279
181 180 220 259 269 253 199 164 187 238 189 153 207 218 231 329 12 356 356 0 354 351 358 355 350 344 338 335 333 327 324 321 318 312 307 304 303 301 297 293 290 288 285 281
178 171 216 255 245 194 181 181 172 179 196 145 73 209 154 63 345 353 351 349 348 350 351 346 340 336 336 329 325 323 322 320 316 311 308 304 300 298 296 293 291 288 285 280
194 187 206 228 154 151 204 202 182 190 194 101 355 286 49 305 326 339 335 338 339 343 340 339 332 327 327 328 329 327 322 317 312 308 305 302 300 298 295 292 290 290 288 284
157 158 149 171 164 65 168 149 116 91 2 245 204 209 165 292 333 329 335 332 336 345 331 327 329 330 331 330 327 321 318 315 311 308 306 301 298 298 299 298 295 290 285 282
187 152 158 144 199 167 181 203 176 190 194 200 210 159 230 284 321 335 327 337 340 334 333 333 332 331 330 327 323 322 320 317 316 315 313 310 307 305 301 298 297 294 291 288
176 150 154 176 171 185 183 204 203 116 139 173 214 142 198 249 329 345 359 345 342 337 335 334 332 331 329 327 327 325 324 322 321 320 318 316 311 308 304 304 302 297 292 289
202 153 188 189 211 184 206 166 152 177 127 212 28 213 211 305 344 5 356 354 350 342 336 333 333 332 329 329 329 332 331 327 325 326 326 323 318 313 307 306 301 295 288 285
208 212 184 200 200 192 180 192 188 161 137 150 143 231 188 5 25 4 350 345 341 342 339 337 334 332 331 333 335 335 334 331 329 329 326 323 321 317 313 309 307 300 293 290
201 192 161 176 171 148 189 212 206 204 193 135 119 128 107 53 359 344 338 336 339 341 340 337 338 338 339 339 337 336 339 340 341 333 328 326 324 320 317 314 309 305 300 295
200 189 144 169 205 201 193 197 196 198 149 146 133 146 135 341 333 329 328 335 340 342 342 343 345 344 343 342 342 343 346 352 348 337 334 333 329 326 323 319 315 308 300 296
212 202 189 199 174 178 181 158 158 175 156 134 112 149 191 283 311 319 332 342 344 347 347 351 349 348 347 346 345 346 344 346 350 347 342 338 335 333 330 327 320 312 306 302
199 194 189 159 154 170 174 175 182 159 135 128 130 128 6 312 323 337 343 341 347 351 353 353 351 350 349 350 348 349 347 345 345 348 346 344 342 339 336 328 324 321 321 317
181 159 157 129 135 150 131 125 137 133 117 112 118 98 26 337 326 334 342 344 351 355 354 354 353 352 353 354 356 353 351 347 344 345 347 348 346 343 338 338 334 329 336 340
213 165 136 133 133 130 103 108 120 117 116 113 99 40 349 355 348 343 347 348 354 356 355 356 354 353 355 353 352 354 353 350 346 347 346 350 349 348 347 345 349 351 1 352
211 185 151 164 144 58 143 132 126 130 117 95 52 1 344 338 339 344 348 353 356 355 357 356 355 356 358 357 357 357 356 355 353 350 356 354 355 358 355 352 353 354 354 1
179 186 133 134 90 119 142 145 141 117 113 48 10 354 340 339 352 350 358 358 356 356 357 355 356 359 359 359 359 360 5 2 358 360 4 1 5 7 4 6 9 14 9 1
48 191 165 124 104 157 157 158 167 145 87 99 23 7 1 356 359 358 359 357 355 356 356 357 358 1 2 4 4 8 10 8 9 12 10 12 14 16 14 18 26 27 7 10
103 123 116 97 93 114 159 167 192 345 116 34 17 358 360 354 352 352 353 352 354 356 359 359 359 3 5 7 10 12 14 17 15 17 14 18 20 23 25 23 26 27 26 33
115 98 90 85 97 110 158 187 235 223 51 20 2 352 355 346 356 352 352 353 357 358 2 2 4 6 6 6 11 10 14 19 19 20 17 20 21 23 29 33 35 36 41 44
79 113 95 74 112 131 141 174 209 93 59 30 353 354 350 348 352 354 352 357 2 5 9 7 8 9 7 8 13 17 13 16 21 23 21 20 23 23 28 30 34 39 44 44
115 114 121 106 115 109 92 64 100 88 39 7 355 350 339 342 348 351 356 3 6 12 13 12 13 12 11 12 15 19 20 23 26 24 26 23 26 32 34 32 32 36 40 45
134 137 121 117 116 111 91 78 74 26 24 21 5 4 353 347 348 355 2 7 9 13 11 12 14 16 14 14 17 18 25 24 29 24 27 27 26 35 36 38 38 42 48 41
140 137 125 131 125 93 94 70 62 55 41 19 13 2 355 354 356 1 5 7 10 12 10 11 15 15 15 15 17 21 25 26 29 35 28 30 30 32 39 41 43 47 53 53